Погода в Братолюбовке

Погода в Братолюбовке : погода сейчас, прогноз погоды и архив. Всё, что Вы хотите узнать о погоде в Братолюбовке!

Поиск расширенной информации на нашем сайте:

Другие новости

Новости СМИ2

Главная страница сайта

Новости сайта

02.10.2013

Напоминаем, что на нашем новом сайте вы можете получить высокодетализированные прогнозы погоды по пунктам России, СНГ и мира (включающие важные для авиации метеовеличины, такие как направление и скорость ветра, видимость, явления погоды, количество и форма облачности, нижняя и верхняя граница облачности), а также ознакомиться с разнообразными материалами по авиационной метеорологии и подборкой полезных ссылок на эту тему.

Сайт Метеоцентр.Азия посвящён разработке технологий оптимизации авиаметеорологического обслуживания, включая проектирование и перспективное создание нескольких автоматизированных авиаметеорологических систем:
- система выпуска высокодетальных прогностических карт явлений погоды для нижнего воздушного пространства по России и ближнему зарубежью;
- система верификации прогнозов TAF (выпускаемых синоптиками официальных АМСГ РФ и ближнего зарубежья) и AUTOTAF (выпускаемых сайтом Метеоцентр.Азия) - выявление ошибок, онлайн-сопоставление с фактической погодой METAR, автоматическое внесение коррективов в прогнозы при резком отклонении фактической погоды от прогноза, подсчёт оправдываемости прогнозов по элементам и в целом;
- система обработки, анализа и отображения авиаметеорологической информации для применения провайдерами метеорологической информации.


Погода в Братолюбовке - сегодня

Время (UTC), дата Ветер
(°,м/с) 
Видим.   Явления Облачность Т
(°С)
Тd
(°С)
f(%) Тe
(°С)
Pmin
(гПа)
dP
(гПа)
Po
(мм)
O2
(г/м3)
Тmin Tmax R s Состояние
почвы
00 22.01.17 270 (З) 20000 м    ясно 
-28.8 -32.2 72 -29  1029.3  0.2  748  339  -29.9      16  равномерный
сухой снег
100% 
03 22.01.17 280 (З) 20000 м    4/0 верхняя 
[Ci fib]
-22.6 -26.5 70 -26  1028.4  -0.1  747  330           
06 22.01.17 270 (З) 20000 м    ясно 
-18.9 -26.2 53 -22  1026.7  -1.2  747  325           
09 22.01.17 250 (З) 40000 м    10/0 верхняя 
[Cs]
-22.9 -27.7 65 -26  1027.7  0.5  747  330           
12 22.01.17 260 (З) 40000 м    ясно 
-24.2 -27.9 71 -27  1027.6  -0.3  747  332    -18.8       
15 22.01.17 270 (З) 50000 м    ясно 
-24.9 -28.4 73 -25  1027.4  -0.3  746  333           
18 22.01.17 240 (ЮЗ) 50000 м    ясно 
-27.1 -30.3 74 -31  1027.5  0.1  746  336           
21 22.01.17 250 (З) 50000 м    ясно 
-28.4 -31.8 73 -29  1027.8  0.1  746  338           
00 23.01.17 300 (СЗ) 35000 м    ясно 
-29.1 -32.6 72 -30  1029.1  1.1  747  339  -30      16  равномерный
сухой снег
100% 
03 23.01.17 330 (СЗ) 20000 м    ясно 
-22.1 -27.3 63 -25  1028.6  0.5  748  330           
06 23.01.17 310 (СЗ) 20000 м    ясно 
-17.5 -26.3 46 -20  1027.7  -0.3  747  324           
09 23.01.17 290 (З) 40000 м    ясно 
-22 -27.4 61 -25  1029.2  0.8  748  330           
12 23.01.17 230 (ЮЗ) 50000 м    ясно 
-24.4 -28.2 71 -25  1029.9  0.3  748  333    -16.7       
15 23.01.17 210 (ЮЗ) 50000 м    ясно 
-24.6 -28.1 73 -25  1029.2  -0.7  748  333           
18 23.01.17 230 (ЮЗ) 50000 м    ясно 
-25.3 -28.3 76 -26  1028.9  -0.3  748  334           
21 23.01.17 250 (З) 50000 м    ясно 
-25.2 -28.4 75 -26  1028.7  -0.2  747  334           
00 24.01.17 230 (ЮЗ) 8000 м  дымка  ясно 
-25.7 -28.7 76 -26  1029.3  0.5  748  334  -31.9      16  равномерный
сухой снег
100% 
03 24.01.17 270 (З) 14000 м    ясно 
-17.6 -24.9 53 -20  1027.8  -0.4  748  324           
06 24.01.17 260 (З) 20000 м    1/0 верхняя 
[Ci fib]
-14.9 -23.7 47 -20  1027  -0.5  747  320           
09 24.01.17 210 (ЮЗ) 45000 м    ясно 
-18.2 -24.4 58 -18  1027.5  0.1  747  324           
12 24.01.17 140 (ЮВ) 45000 м    ясно 
-22 -25.9 71 -22  1028.3  0.2  747  329    -14.7       
15 24.01.17 190 (Ю) 45000 м    ясно 
-21.9 -25.5 73 -22  1028  -0.2  747  329           
18 24.01.17 240 (ЮЗ) 40000 м    ясно 
-26.8 -30.1 74 -27  1028.5  -0.2  747  336           
21 24.01.17 160 (Ю) 35000 м    ясно 
-26.7 -29.9 74 -27  1028  -0.4  747  335           
00 25.01.17 160 (Ю) 8000 м    ясно 
-24.3 -27.7 73 -27  1028.3  0.5  747  332  -28.6      16  равномерный
сухой снег
100% 
Время (UTC), дата Ветер
(°,м/с) 
Видим.   Явления Облачность Т
(°С)
Тd
(°С)
f(%) Тe
(°С)
Pmin
(гПа)
dP
(гПа)
Po
(мм)
O2
(г/м3)
Тmin Tmax R s Состояние
почвы

Для получения пояснительной информации подведите курсор к названию столбца.

ПОГОДА в Братолюбовке - архив

Всё, что Вы хотите узнать о погоде в Братолюбовке - удобно и подробно!

Выберите нужную дату (начиная с 1 января 2015* года) и нажмите кнопку "Найти".
Будут отображены архивные сводки погоды по пункту Братолюбовка, начиная с указанной даты.


Отображать данные в формате CSV (для использования в таблицах Excel)


Внимание! Наш архив погоды предназначен исключительно для личного некоммерческого использования в познавательных целях. Если Вам необходимы официальные справки о состоянии погоды (для производственных, юридических, коммерческих и т.п. целей), обращайтесь в органы Росгидромета.

*Примечание: данная дата относится к архиву по метеостанциям СССР (Россия, СНГ, Балтия).
Архив по метеостанциям Зарубежной Европы и Азии (кроме Китая) хранится 10 дней, по другим регионам земного шара (Китай, Африка, Америка, Австралия, Океания) - 1 день.

Братолюбовка - район местоположения метеостанции


Название, широта, долгота, высота метеостанции:
Братолюбовка 50.8°ш. 129.3°д. 227 м над ур. моря [Российская Федерация]

Дополнительная информация

В oтличие oт бoльшинства пoгoдных сайтoв мы публикуем пoдрoбную метеoинфoрмацию в детальнoм прoфессиoнальнoм фoрмате.

Характеристики температуры и влажнoсти вoздуха измеряются на высoте 2 м в тени вдали oт зданий и деревьев.
Скoрoсть ветра измеряется на высoте 10 м (на урoвне рoста челoвека скoрoсть ветра ниже в 1.5-2 раза). Если метеoстанция нахoдится в гoрoде или в лесу, тo скoрoсть ветра занижена на 2-4 м/с пo сравнению с oткрытым местoм. Скoрoсть ветра над акватoриями крупных рек и oзёр, а также на вершинах хoлмoв на 2-5 м/с выше, чем в oбычных услoвиях.
Атмoсфернoе давление в разных тoчках местнoсти мoжет значительнo oтличаться oт давления на метеoстанции, в зависимoсти oт услoвий рельефа (при пoдъёме на 10 м давление пoнижается примернo на 1 мм рт.ст.).